QPF
0.00 0.00 0.01 0.02 0.00 0.00 0.00 0.00 0.00 0.00 0.00 0.00 0.00 0.00 0.00 0.00 0.00 0.00 0.00 0.00 0.00 0.00 0.00 0.02 0.04 0.02 0.01 0.01 0.03 0.05 0.05 0.06 0.09 0.13 0.10 0.04 0.00 0.00 0.01 0.01 0.03 0.05 0.03 0.02 0.01 0.00 0.00 0.00 0.02
0.00 0.01 0.01 0.01 0.00 0.00 0.00 0.00 0.00 0.00 0.00 0.00 0.00 0.00 0.00 0.00 0.00 0.00 0.00 0.00 0.00 0.00 0.02 0.05 0.07 0.04 0.02 0.03 0.04 0.06 0.06 0.06 0.08 0.10 0.08 0.02 0.00 0.00 0.01 0.03 0.03 0.02 0.01 0.00 0.00 0.00 0.00 0.00 0.01
0.00 0.00 0.01 0.00 0.00 0.00 0.00 0.00 0.00 0.00 0.00 0.00 0.00 0.00 0.00 0.00 0.00 0.00 0.00 0.00 0.00 0.00 0.03 0.08 0.11 0.09 0.06 0.05 0.06 0.05 0.06 0.06 0.08 0.09 0.03 0.00 0.00 0.01 0.03 0.05 0.04 0.01 0.00 0.00 0.00 0.00 0.00 0.00 0.01
0.00 0.01 0.00 0.00 0.00 0.00 0.00 0.00 0.00 0.00 0.00 0.00 0.00 0.00 0.00 0.00 0.00 0.00 0.00 0.00 0.00 0.00 0.03 0.06 0.09 0.09 0.07 0.08 0.07 0.04 0.05 0.07 0.08 0.04 0.01 0.00 0.00 0.01 0.02 0.03 0.02 0.00 0.00 0.00 0.00 0.00 0.00 0.00 0.01
0.01 0.01 0.00 0.00 0.00 0.00 0.00 0.00 0.00 0.00 0.00 0.00 0.00 0.00 0.00 0.00 0.00 0.00 0.00 0.00 0.00 0.00 0.01 0.03 0.06 0.06 0.04 0.05 0.05 0.03 0.04 0.06 0.04 0.01 0.01 0.00 0.00 0.01 0.01 0.01 0.01 0.00 0.00 0.00 0.00 0.00 0.00 0.00 0.02
0.01 0.00 0.00 0.00 0.00 0.00 0.00 0.00 0.00 0.00 0.00 0.00 0.00 0.00 0.00 0.00 0.00 0.00 0.00 0.00 0.00 0.00 0.00 0.01 0.04 0.04 0.03 0.03 0.02 0.03 0.04 0.03 0.02 0.01 0.00 0.01 0.01 0.01 0.01 0.01 0.01 0.00 0.00 0.00 0.00 0.00 0.00 0.01 0.03
0.03 0.00 0.00 0.00 0.00 0.00 0.00 0.00 0.00 0.00 0.00 0.00 0.00 0.00 0.00 0.00 0.00 0.00 0.00 0.00 0.00 0.00 0.00 0.00 0.01 0.02 0.02 0.02 0.02 0.03 0.03 0.02 0.02 0.01 0.00 0.01 0.01 0.01 0.01 0.01 0.00 0.00 0.00 0.00 0.00 0.00 0.00 0.02 0.05
0.02 0.00 0.00 0.00 0.00 0.00 0.00 0.00 0.00 0.00 0.00 0.00 0.00 0.00 0.00 0.00 0.00 0.00 0.00 0.00 0.00 0.00 0.00 0.00 0.00 0.00 0.01 0.01 0.03 0.02 0.01 0.01 0.01 0.02 0.01 0.01 0.01 0.00 0.00 0.00 0.00 0.00 0.00 0.00 0.00 0.00 0.01 0.03 0.06
0.02 0.00 0.00 0.00 0.00 0.00 0.00 0.00 0.00 0.00 0.00 0.00 0.00 0.00 0.00 0.00 0.00 0.00 0.00 0.00 0.01 0.00 0.00 0.00 0.00 0.00 0.00 0.00 0.01 0.02 0.01 0.02 0.03 0.02 0.02 0.02 0.01 0.00 0.01 0.00 0.00 0.00 0.00 0.00 0.00 0.00 0.00 0.01 0.04
0.02 0.00 0.00 0.00 0.00 0.00 0.00 0.00 0.00 0.00 0.00 0.00 0.00 0.00 0.00 0.00 0.00 0.00 0.00 0.00 0.01 0.00 0.00 0.00 0.00 0.00 0.00 0.00 0.01 0.00 0.01 0.02 0.03 0.04 0.03 0.02 0.00 0.00 0.00 0.00 0.01 0.00 0.00 0.00 0.00 0.00 0.00 0.00 0.00
0.00 0.00 0.00 0.00 0.00 0.00 0.00 0.00 0.00 0.00 0.00 0.00 0.00 0.00 0.00 0.00 0.00 0.00 0.00 0.00 0.00 0.00 0.00 0.00 0.00 0.00 0.00 0.01 0.02 0.01 0.01 0.01 0.01 0.02 0.03 0.00 0.00 0.00 0.00 0.00 0.01 0.00 0.00 0.00 0.00 0.00 0.00 0.00 0.00
0.00 0.01 0.01 0.01 0.00 0.00 0.00 0.00 0.00 0.00 0.00 0.00 0.00 0.00 0.00 0.00 0.00 0.00 0.00 0.00 0.00 0.00 0.00 0.00 0.00 0.00 0.00 0.01 0.01 0.01 0.01 0.01 0.00 0.00 0.01 0.00 0.00 0.00 0.00 0.00 0.00 0.00 0.00 0.00 0.00 0.00 0.00 0.00 0.00
0.00 0.00 0.01 0.02 0.00 0.00 0.00 0.00 0.00 0.00 0.00 0.00 0.00 0.00 0.00 0.00 0.00 0.00 0.00 0.00 0.00 0.01 0.01 0.01 0.01 0.01 0.01 0.00 0.01 0.01 0.01 0.01 0.01 0.00 0.00 0.00 0.00 0.00 0.00 0.00 0.00 0.00 0.00 0.00 0.00 0.00 0.00 0.00 0.00
0.01 0.00 0.02 0.01 0.00 0.00 0.00 0.00 0.00 0.00 0.00 0.00 0.00 0.00 0.00 0.00 0.00 0.00 0.00 0.01 0.00 0.03 0.07 0.07 0.04 0.04 0.02 0.00 0.00 0.01 0.00 0.01 0.01 0.00 0.01 0.00 0.00 0.00 0.00 0.00 0.00 0.00 0.00 0.00 0.00 0.01 0.01 0.00 0.00
0.01 0.01 0.01 0.00 0.00 0.00 0.00 0.00 0.00 0.00 0.00 0.00 0.00 0.00 0.00 0.00 0.00 0.00 0.00 0.00 0.00 0.02 0.06 0.07 0.07 0.06 0.02 0.00 0.00 0.01 0.01 0.01 0.01 0.01 0.01 0.01 0.00 0.00 0.01 0.01 0.01 0.01 0.02 0.01 0.01 0.01 0.01 0.00 0.00
0.01 0.01 0.01 0.00 0.00 0.00 0.00 0.00 0.00 0.00 0.00 0.00 0.00 0.00 0.00 0.00 0.00 0.00 0.00 0.00 0.00 0.00 0.01 0.02 0.03 0.03 0.01 0.00 0.01 0.01 0.01 0.01 0.02 0.02 0.03 0.03 0.01 0.01 0.01 0.01 0.02 0.03 0.03 0.03 0.02 0.01 0.01 0.00 0.00
0.01 0.00 0.00 0.00 0.00 0.00 0.00 0.00 0.00 0.00 0.00 0.00 0.00 0.00 0.00 0.00 0.00 0.00 0.00 0.00 0.00 0.00 0.01 0.02 0.02 0.02 0.03 0.04 0.04 0.04 0.03 0.05 0.07 0.07 0.07 0.06 0.03 0.02 0.02 0.02 0.02 0.02 0.03 0.04 0.03 0.01 0.01 0.01 0.00
0.01 0.00 0.00 0.00 0.00 0.00 0.00 0.00 0.00 0.00 0.00 0.00 0.00 0.00 0.00 0.00 0.00 0.00 0.00 0.00 0.00 0.00 0.02 0.03 0.05 0.09 0.13 0.16 0.17 0.17 0.14 0.12 0.14 0.16 0.16 0.12 0.06 0.04 0.03 0.03 0.02 0.01 0.02 0.04 0.04 0.03 0.02 0.02 0.00
0.00 0.00 0.00 0.00 0.00 0.00 0.00 0.00 0.00 0.00 0.00 0.00 0.00 0.00 0.00 0.00 0.00 0.00 0.00 0.00 0.00 0.00 0.01 0.03 0.08 0.16 0.21 0.20 0.22 0.24 0.24 0.23 0.24 0.28 0.29 0.21 0.13 0.09 0.07 0.06 0.04 0.03 0.02 0.04 0.07 0.05 0.04 0.02 0.00
0.00 0.00 0.00 0.00 0.00 0.00 0.00 0.00 0.00 0.00 0.00 0.00 0.00 0.00 0.00 0.00 0.00 0.00 0.00 0.00 0.00 0.00 0.01 0.03 0.07 0.14 0.19 0.21 0.24 0.25 0.28 0.29 0.29 0.33 0.33 0.30 0.23 0.15 0.10 0.09 0.09 0.06 0.02 0.05 0.07 0.04 0.04 0.03 0.00
0.00 0.00 0.00 0.00 0.00 0.00 0.00 0.00 0.00 0.00 0.00 0.00 0.00 0.00 0.00 0.00 0.00 0.00 0.00 0.00 0.00 0.00 0.00 0.01 0.04 0.08 0.13 0.17 0.19 0.18 0.16 0.14 0.14 0.16 0.19 0.22 0.24 0.21 0.14 0.12 0.13 0.08 0.03 0.03 0.04 0.04 0.03 0.02 0.00
0.00 0.00 0.00 0.00 0.00 0.00 0.00 0.00 0.00 0.00 0.00 0.00 0.00 0.00 0.00 0.00 0.00 0.00 0.00 0.00 0.00 0.00 0.00 0.00 0.01 0.03 0.04 0.07 0.08 0.07 0.05 0.04 0.06 0.09 0.13 0.16 0.21 0.24 0.22 0.17 0.15 0.10 0.04 0.03 0.06 0.10 0.07 0.04 0.01
0.00 0.00 0.00 0.00 0.00 0.00 0.00 0.00 0.00 0.00 0.00 0.00 0.00 0.00 0.00 0.00 0.00 0.00 0.00 0.00 0.00 0.00 0.00 0.00 0.00 0.00 0.00 0.01 0.01 0.01 0.01 0.01 0.03 0.07 0.12 0.14 0.18 0.23 0.23 0.20 0.14 0.09 0.07 0.07 0.08 0.10 0.10 0.07 0.04
0.00 0.00 0.00 0.00 0.00 0.00 0.00 0.00 0.00 0.00 0.00 0.00 0.00 0.00 0.00 0.00 0.00 0.00 0.00 0.00 0.00 0.00 0.00 0.00 0.00 0.00 0.00 0.00 0.00 0.00 0.00 0.00 0.01 0.06 0.13 0.17 0.20 0.24 0.23 0.17 0.14 0.12 0.08 0.08 0.09 0.11 0.11 0.09 0.08
0.00 0.00 0.00 0.00 0.00 0.00 0.00 0.00 0.00 0.00 0.00 0.00 0.00 0.00 0.00 0.00 0.00 0.00 0.00 0.00 0.00 0.00 0.00 0.00 0.00 0.00 0.00 0.00 0.00 0.00 0.00 0.00 0.02 0.05 0.11 0.18 0.24 0.27 0.26 0.20 0.15 0.12 0.09 0.09 0.11 0.11 0.08 0.06 0.05
0.00 0.00 0.00 0.00 0.00 0.00 0.00 0.00 0.00 0.00 0.00 0.00 0.00 0.00 0.00 0.00 0.00 0.00 0.00 0.00 0.00 0.00 0.00 0.00 0.00 0.00 0.00 0.00 0.00 0.00 0.00 0.00 0.01 0.03 0.06 0.12 0.17 0.21 0.23 0.22 0.17 0.15 0.11 0.09 0.10 0.11 0.10 0.09 0.07
0.00 0.00 0.00 0.00 0.00 0.00 0.00 0.00 0.00 0.00 0.00 0.00 0.00 0.00 0.00 0.00 0.00 0.00 0.00 0.00 0.00 0.00 0.00 0.00 0.00 0.00 0.00 0.00 0.00 0.00 0.00 0.00 0.00 0.01 0.02 0.04 0.07 0.09 0.11 0.13 0.12 0.11 0.11 0.11 0.11 0.10 0.09 0.07 0.06
0.00 0.00 0.00 0.00 0.00 0.00 0.00 0.00 0.00 0.00 0.00 0.00 0.00 0.00 0.00 0.00 0.00 0.00 0.00 0.00 0.00 0.00 0.00 0.00 0.00 0.00 0.00 0.00 0.00 0.00 0.00 0.00 0.00 0.01 0.01 0.02 0.02 0.03 0.04 0.06 0.06 0.06 0.07 0.07 0.07 0.08 0.07 0.05 0.03
0.01 0.01 0.01 0.01 0.01 0.00 0.00 0.00 0.00 0.00 0.00 0.00 0.00 0.00 0.00 0.00 0.00 0.00 0.00 0.00 0.00 0.00 0.00 0.00 0.00 0.00 0.00 0.00 0.00 0.00 0.00 0.00 0.00 0.01 0.01 0.01 0.01 0.01 0.02 0.03 0.05 0.06 0.06 0.07 0.07 0.07 0.08 0.06 0.04
0.05 0.06 0.05 0.04 0.03 0.01 0.00 0.00 0.00 0.00 0.00 0.00 0.00 0.00 0.00 0.00 0.00 0.00 0.00 0.00 0.00 0.00 0.00 0.00 0.00 0.00 0.00 0.00 0.00 0.00 0.00 0.00 0.01 0.01 0.01 0.02 0.02 0.02 0.01 0.02 0.03 0.04 0.06 0.09 0.09 0.08 0.08 0.06 0.04
MSLP
1006.86 1007.91 1009.19 1010.52 1011.74 1012.70 1013.30 1013.54 1013.46 1013.17 1012.80 1012.46 1012.22 1012.09 1012.05 1012.04 1011.99 1011.85 1011.60 1011.26 1010.89 1010.56 1010.33 1010.25 1010.34 1010.56 1010.88 1011.23 1011.55 1011.82 1012.02 1012.15 1012.24 1012.33 1012.44 1012.59 1012.78 1012.99 1013.22 1013.42 1013.59 1013.70 1013.76 1013.76 1013.72 1013.65 1013.57 1013.50 1013.45
1007.47 1008.67 1010.03 1011.35 1012.46 1013.24 1013.62 1013.61 1013.29 1012.79 1012.26 1011.81 1011.50 1011.35 1011.33 1011.36 1011.37 1011.30 1011.13 1010.88 1010.60 1010.36 1010.21 1010.20 1010.33 1010.60 1010.94 1011.31 1011.65 1011.94 1012.16 1012.32 1012.44 1012.56 1012.69 1012.84 1013.04 1013.24 1013.45 1013.64 1013.79 1013.89 1013.93 1013.93 1013.89 1013.82 1013.74 1013.68 1013.63
1008.21 1009.50 1010.85 1012.08 1013.03 1013.59 1013.73 1013.49 1012.98 1012.34 1011.71 1011.20 1010.88 1010.74 1010.74 1010.80 1010.84 1010.81 1010.70 1010.51 1010.31 1010.14 1010.07 1010.13 1010.32 1010.62 1010.99 1011.38 1011.74 1012.04 1012.28 1012.46 1012.61 1012.75 1012.90 1013.07 1013.26 1013.46 1013.65 1013.81 1013.94 1014.03 1014.07 1014.08 1014.05 1014.00 1013.95 1013.90 1013.88
1009.02 1010.34 1011.62 1012.69 1013.43 1013.75 1013.66 1013.24 1012.59 1011.87 1011.22 1010.73 1010.44 1010.34 1010.36 1010.43 1010.48 1010.47 1010.37 1010.23 1010.08 1009.98 1009.97 1010.09 1010.33 1010.67 1011.05 1011.44 1011.80 1012.10 1012.35 1012.55 1012.72 1012.89 1013.06 1013.24 1013.43 1013.62 1013.80 1013.95 1014.07 1014.16 1014.21 1014.24 1014.25 1014.24 1014.22 1014.21 1014.22
1009.83 1011.11 1012.25 1013.12 1013.62 1013.72 1013.44 1012.88 1012.17 1011.45 1010.85 1010.44 1010.21 1010.16 1010.21 1010.29 1010.33 1010.30 1010.21 1010.08 1009.96 1009.91 1009.96 1010.13 1010.41 1010.76 1011.13 1011.51 1011.84 1012.13 1012.37 1012.58 1012.77 1012.96 1013.16 1013.37 1013.57 1013.76 1013.94 1014.08 1014.21 1014.31 1014.38 1014.45 1014.50 1014.54 1014.58 1014.61 1014.64
1010.56 1011.72 1012.69 1013.33 1013.60 1013.49 1013.06 1012.44 1011.74 1011.09 1010.60 1010.30 1010.19 1010.20 1010.29 1010.36 1010.38 1010.33 1010.21 1010.09 1009.99 1009.98 1010.08 1010.28 1010.57 1010.91 1011.26 1011.60 1011.89 1012.14 1012.36 1012.56 1012.77 1013.00 1013.23 1013.47 1013.69 1013.90 1014.09 1014.24 1014.37 1014.48 1014.59 1014.70 1014.80 1014.89 1014.98 1015.05 1015.11
1011.10 1012.12 1012.88 1013.30 1013.35 1013.07 1012.56 1011.92 1011.29 1010.77 1010.44 1010.29 1010.29 1010.39 1010.51 1010.58 1010.58 1010.50 1010.37 1010.24 1010.17 1010.19 1010.31 1010.54 1010.83 1011.14 1011.45 1011.73 1011.96 1012.16 1012.35 1012.55 1012.78 1013.03 1013.31 1013.59 1013.85 1014.08 1014.27 1014.43 1014.57 1014.70 1014.83 1014.97 1015.12 1015.26 1015.39 1015.49 1015.57
1011.45 1012.28 1012.82 1013.02 1012.89 1012.50 1011.94 1011.35 1010.82 1010.46 1010.29 1010.30 1010.43 1010.61 1010.77 1010.84 1010.82 1010.73 1010.59 1010.48 1010.43 1010.48 1010.63 1010.87 1011.15 1011.43 1011.69 1011.90 1012.07 1012.22 1012.38 1012.58 1012.82 1013.11 1013.43 1013.75 1014.05 1014.30 1014.51 1014.67 1014.81 1014.94 1015.08 1015.24 1015.41 1015.59 1015.75 1015.89 1015.98
1011.58 1012.22 1012.56 1012.57 1012.29 1011.82 1011.26 1010.73 1010.34 1010.14 1010.13 1010.28 1010.52 1010.77 1010.95 1011.04 1011.02 1010.91 1010.79 1010.70 1010.69 1010.77 1010.96 1011.20 1011.47 1011.72 1011.93 1012.08 1012.20 1012.31 1012.45 1012.65 1012.92 1013.25 1013.61 1013.97 1014.30 1014.57 1014.79 1014.94 1015.07 1015.19 1015.32 1015.48 1015.67 1015.87 1016.05 1016.21 1016.31
1011.56 1012.01 1012.16 1012.02 1011.64 1011.12 1010.58 1010.13 1009.86 1009.79 1009.91 1010.17 1010.49 1010.78 1010.99 1011.08 1011.06 1010.97 1010.87 1010.81 1010.84 1010.97 1011.19 1011.45 1011.72 1011.95 1012.12 1012.24 1012.32 1012.42 1012.55 1012.76 1013.06 1013.42 1013.82 1014.22 1014.57 1014.86 1015.07 1015.22 1015.33 1015.43 1015.54 1015.69 1015.88 1016.09 1016.29 1016.46 1016.58
1011.46 1011.75 1011.74 1011.48 1011.03 1010.49 1009.99 1009.61 1009.42 1009.45 1009.65 1009.97 1010.32 1010.63 1010.84 1010.93 1010.91 1010.84 1010.76 1010.75 1010.82 1010.99 1011.24 1011.52 1011.80 1012.03 1012.20 1012.31 1012.39 1012.49 1012.64 1012.88 1013.20 1013.60 1014.03 1014.45 1014.82 1015.12 1015.33 1015.47 1015.56 1015.64 1015.74 1015.88 1016.06 1016.28 1016.50 1016.70 1016.84
1011.37 1011.52 1011.40 1011.06 1010.57 1010.04 1009.57 1009.24 1009.10 1009.17 1009.40 1009.72 1010.06 1010.34 1010.52 1010.60 1010.58 1010.51 1010.47 1010.48 1010.59 1010.79 1011.07 1011.38 1011.68 1011.93 1012.12 1012.26 1012.37 1012.50 1012.69 1012.95 1013.31 1013.73 1014.18 1014.62 1015.00 1015.31 1015.52 1015.66 1015.75 1015.83 1015.92 1016.06 1016.25 1016.47 1016.72 1016.95 1017.13
1011.38 1011.42 1011.23 1010.84 1010.35 1009.83 1009.39 1009.08 1008.96 1009.01 1009.21 1009.48 1009.75 1009.98 1010.11 1010.15 1010.12 1010.06 1010.02 1010.05 1010.18 1010.39 1010.69 1011.02 1011.34 1011.63 1011.87 1012.06 1012.24 1012.42 1012.66 1012.96 1013.34 1013.77 1014.23 1014.67 1015.06 1015.38 1015.61 1015.77 1015.88 1015.98 1016.09 1016.25 1016.46 1016.71 1016.98 1017.25 1017.47
1011.52 1011.50 1011.27 1010.88 1010.40 1009.91 1009.48 1009.18 1009.03 1009.03 1009.14 1009.32 1009.50 1009.64 1009.71 1009.71 1009.65 1009.57 1009.52 1009.54 1009.66 1009.87 1010.15 1010.49 1010.84 1011.18 1011.48 1011.75 1012.01 1012.27 1012.56 1012.89 1013.28 1013.71 1014.16 1014.59 1014.98 1015.31 1015.58 1015.78 1015.94 1016.09 1016.26 1016.46 1016.70 1016.99 1017.30 1017.61 1017.88
1011.79 1011.73 1011.50 1011.13 1010.69 1010.24 1009.83 1009.51 1009.31 1009.23 1009.23 1009.30 1009.37 1009.41 1009.41 1009.35 1009.26 1009.16 1009.08 1009.07 1009.15 1009.32 1009.58 1009.90 1010.27 1010.66 1011.03 1011.39 1011.73 1012.07 1012.41 1012.77 1013.16 1013.56 1013.98 1014.39 1014.77 1015.12 1015.43 1015.69 1015.93 1016.16 1016.39 1016.66 1016.95 1017.28 1017.64 1017.99 1018.31
1012.14 1012.08 1011.87 1011.56 1011.17 1010.76 1010.37 1010.03 1009.77 1009.58 1009.47 1009.41 1009.37 1009.33 1009.26 1009.17 1009.04 1008.91 1008.80 1008.74 1008.76 1008.87 1009.08 1009.38 1009.75 1010.17 1010.61 1011.05 1011.48 1011.88 1012.27 1012.64 1013.00 1013.36 1013.73 1014.09 1014.46 1014.82 1015.17 1015.50 1015.83 1016.15 1016.47 1016.81 1017.16 1017.53 1017.92 1018.31 1018.68
1012.50 1012.46 1012.30 1012.06 1011.75 1011.39 1011.02 1010.66 1010.32 1010.04 1009.81 1009.64 1009.50 1009.38 1009.27 1009.15 1009.01 1008.86 1008.72 1008.61 1008.56 1008.60 1008.74 1008.99 1009.35 1009.79 1010.29 1010.80 1011.30 1011.76 1012.17 1012.53 1012.85 1013.15 1013.45 1013.75 1014.09 1014.45 1014.84 1015.24 1015.65 1016.06 1016.46 1016.86 1017.27 1017.68 1018.09 1018.51 1018.92
1012.80 1012.80 1012.72 1012.57 1012.34 1012.05 1011.70 1011.31 1010.91 1010.52 1010.18 1009.90 1009.68 1009.51 1009.38 1009.26 1009.13 1008.99 1008.83 1008.68 1008.57 1008.53 1008.60 1008.80 1009.13 1009.58 1010.10 1010.67 1011.22 1011.72 1012.14 1012.48 1012.75 1012.97 1013.18 1013.42 1013.71 1014.06 1014.47 1014.92 1015.40 1015.88 1016.35 1016.80 1017.23 1017.66 1018.09 1018.53 1018.97
1012.98 1013.04 1013.06 1013.02 1012.89 1012.67 1012.34 1011.92 1011.45 1010.96 1010.50 1010.12 1009.83 1009.63 1009.50 1009.41 1009.33 1009.22 1009.08 1008.91 1008.76 1008.66 1008.66 1008.79 1009.08 1009.52 1010.06 1010.65 1011.23 1011.75 1012.17 1012.48 1012.69 1012.83 1012.96 1013.12 1013.35 1013.68 1014.09 1014.57 1015.09 1015.62 1016.13 1016.60 1017.05 1017.48 1017.90 1018.35 1018.80
1013.03 1013.17 1013.31 1013.39 1013.37 1013.22 1012.91 1012.45 1011.90 1011.30 1010.73 1010.24 1009.88 1009.66 1009.55 1009.51 1009.49 1009.45 1009.35 1009.20 1009.03 1008.89 1008.84 1008.92 1009.16 1009.57 1010.10 1010.70 1011.29 1011.81 1012.22 1012.50 1012.65 1012.73 1012.78 1012.87 1013.05 1013.34 1013.73 1014.22 1014.76 1015.31 1015.82 1016.30 1016.73 1017.14 1017.55 1017.98 1018.46
1012.96 1013.22 1013.49 1013.71 1013.80 1013.71 1013.41 1012.91 1012.26 1011.53 1010.82 1010.23 1009.79 1009.54 1009.45 1009.47 1009.53 1009.58 1009.55 1009.46 1009.31 1009.16 1009.07 1009.10 1009.30 1009.66 1010.17 1010.75 1011.33 1011.85 1012.25 1012.50 1012.61 1012.64 1012.64 1012.67 1012.80 1013.05 1013.43 1013.91 1014.44 1014.97 1015.48 1015.93 1016.33 1016.71 1017.09 1017.50 1017.98
1012.84 1013.22 1013.64 1014.00 1014.21 1014.18 1013.88 1013.31 1012.55 1011.68 1010.82 1010.09 1009.56 1009.26 1009.17 1009.25 1009.40 1009.55 1009.62 1009.60 1009.50 1009.37 1009.27 1009.27 1009.42 1009.73 1010.19 1010.74 1011.31 1011.81 1012.19 1012.43 1012.52 1012.52 1012.49 1012.50 1012.60 1012.83 1013.18 1013.64 1014.15 1014.66 1015.14 1015.56 1015.92 1016.26 1016.60 1016.99 1017.46
1012.73 1013.25 1013.82 1014.32 1014.63 1014.65 1014.34 1013.70 1012.81 1011.78 1010.76 1009.88 1009.23 1008.87 1008.77 1008.88 1009.11 1009.35 1009.54 1009.61 1009.58 1009.49 1009.39 1009.37 1009.48 1009.74 1010.15 1010.65 1011.18 1011.66 1012.04 1012.27 1012.37 1012.37 1012.34 1012.34 1012.43 1012.65 1012.99 1013.43 1013.92 1014.41 1014.86 1015.24 1015.57 1015.86 1016.17 1016.53 1016.97
1012.68 1013.34 1014.05 1014.67 1015.07 1015.14 1014.80 1014.09 1013.08 1011.89 1010.70 1009.66 1008.89 1008.44 1008.30 1008.43 1008.71 1009.04 1009.32 1009.49 1009.54 1009.50 1009.42 1009.39 1009.47 1009.68 1010.04 1010.48 1010.97 1011.43 1011.79 1012.03 1012.14 1012.17 1012.16 1012.18 1012.29 1012.51 1012.84 1013.27 1013.75 1014.22 1014.64 1014.99 1015.29 1015.55 1015.82 1016.14 1016.56
1012.74 1013.50 1014.33 1015.05 1015.52 1015.61 1015.25 1014.47 1013.34 1012.02 1010.68 1009.49 1008.59 1008.04 1007.85 1007.96 1008.28 1008.67 1009.03 1009.29 1009.41 1009.43 1009.38 1009.35 1009.40 1009.58 1009.87 1010.27 1010.71 1011.13 1011.49 1011.74 1011.87 1011.94 1011.97 1012.02 1012.15 1012.39 1012.73 1013.15 1013.61 1014.07 1014.48 1014.82 1015.09 1015.33 1015.57 1015.86 1016.23
1012.89 1013.73 1014.62 1015.40 1015.91 1016.00 1015.62 1014.79 1013.58 1012.15 1010.69 1009.38 1008.37 1007.73 1007.48 1007.56 1007.88 1008.30 1008.72 1009.04 1009.23 1009.30 1009.30 1009.28 1009.31 1009.45 1009.70 1010.04 1010.44 1010.84 1011.18 1011.44 1011.60 1011.70 1011.77 1011.86 1012.02 1012.27 1012.62 1013.04 1013.50 1013.94 1014.34 1014.67 1014.94 1015.16 1015.38 1015.63 1015.95
1013.11 1013.96 1014.87 1015.66 1016.16 1016.25 1015.84 1014.97 1013.72 1012.23 1010.70 1009.32 1008.23 1007.52 1007.21 1007.25 1007.55 1007.97 1008.42 1008.78 1009.03 1009.14 1009.18 1009.18 1009.21 1009.33 1009.54 1009.85 1010.21 1010.57 1010.91 1011.17 1011.35 1011.48 1011.58 1011.71 1011.89 1012.15 1012.49 1012.91 1013.35 1013.79 1014.19 1014.52 1014.78 1015.00 1015.20 1015.42 1015.69
1013.34 1014.15 1015.01 1015.75 1016.21 1016.26 1015.83 1014.94 1013.68 1012.18 1010.65 1009.25 1008.13 1007.38 1007.02 1007.02 1007.28 1007.69 1008.13 1008.52 1008.79 1008.95 1009.02 1009.05 1009.10 1009.21 1009.41 1009.69 1010.03 1010.37 1010.69 1010.96 1011.15 1011.30 1011.42 1011.56 1011.75 1012.01 1012.34 1012.74 1013.17 1013.59 1013.98 1014.31 1014.57 1014.79 1014.98 1015.17 1015.39
1013.53 1014.24 1014.99 1015.63 1015.99 1015.98 1015.52 1014.63 1013.39 1011.94 1010.45 1009.09 1007.99 1007.24 1006.86 1006.82 1007.04 1007.42 1007.84 1008.22 1008.51 1008.70 1008.80 1008.87 1008.95 1009.08 1009.29 1009.56 1009.88 1010.22 1010.53 1010.80 1011.00 1011.16 1011.29 1011.43 1011.60 1011.85 1012.15 1012.52 1012.92 1013.32 1013.69 1014.01 1014.28 1014.49 1014.67 1014.84 1015.03
1013.64 1014.20 1014.80 1015.28 1015.51 1015.40 1014.90 1014.03 1012.84 1011.47 1010.07 1008.79 1007.76 1007.04 1006.66 1006.60 1006.79 1007.12 1007.51 1007.87 1008.16 1008.37 1008.51 1008.62 1008.73 1008.90 1009.13 1009.41 1009.74 1010.08 1010.39 1010.66 1010.87 1011.03 1011.16 1011.29 1011.45 1011.66 1011.93 1012.26 1012.61 1012.98 1013.33 1013.63 1013.89 1014.10 1014.27 1014.43 1014.59
Thickness
5831 5831 5828 5815 5789 5764 5763 5774 5780 5783 5787 5794 5797 5792 5786 5781 5776 5774 5796 5804 5803 5799 5796 5793 5789 5786 5782 5779 5775 5773 5771 5768 5765 5763 5760 5758 5755 5753 5752 5751 5749 5748 5747 5746 5747 5750 5753 5756 5759
5831 5829 5819 5799 5769 5750 5759 5778 5781 5787 5793 5797 5797 5792 5786 5783 5790 5792 5798 5802 5802 5799 5795 5792 5789 5785 5781 5777 5774 5771 5769 5767 5764 5761 5759 5756 5753 5751 5750 5749 5747 5746 5745 5745 5746 5748 5750 5753 5755
5831 5826 5806 5785 5766 5757 5769 5786 5788 5795 5799 5797 5790 5791 5787 5785 5792 5794 5801 5803 5801 5797 5794 5790 5787 5784 5780 5776 5772 5769 5767 5765 5762 5760 5757 5754 5752 5749 5747 5746 5745 5744 5743 5743 5744 5745 5747 5749 5752
5824 5811 5797 5778 5771 5776 5781 5791 5796 5792 5795 5796 5790 5783 5789 5798 5798 5800 5803 5802 5798 5795 5792 5789 5786 5783 5779 5775 5771 5768 5765 5763 5760 5757 5754 5752 5750 5747 5745 5744 5743 5742 5741 5741 5742 5742 5744 5746 5749
5817 5798 5780 5769 5776 5786 5793 5798 5798 5791 5790 5792 5789 5779 5783 5797 5804 5803 5802 5800 5796 5793 5791 5788 5785 5782 5778 5774 5770 5766 5763 5760 5757 5755 5752 5750 5747 5745 5743 5741 5740 5739 5738 5738 5738 5739 5741 5743 5745
5799 5788 5766 5760 5775 5787 5797 5803 5799 5793 5790 5791 5786 5778 5781 5796 5798 5799 5800 5798 5796 5793 5790 5787 5784 5780 5776 5772 5768 5764 5761 5757 5755 5752 5749 5747 5745 5743 5741 5738 5736 5735 5735 5735 5735 5736 5738 5740 5741
5792 5779 5769 5770 5772 5783 5798 5806 5798 5792 5788 5790 5790 5776 5780 5790 5795 5797 5797 5795 5794 5792 5789 5785 5782 5778 5774 5770 5766 5762 5759 5755 5752 5748 5745 5743 5741 5739 5737 5735 5733 5732 5731 5730 5730 5732 5733 5735 5737
5798 5781 5773 5771 5773 5782 5802 5807 5806 5799 5794 5800 5794 5777 5776 5789 5794 5794 5792 5791 5790 5789 5786 5782 5778 5774 5771 5767 5764 5760 5756 5753 5749 5745 5742 5739 5737 5735 5733 5731 5729 5728 5727 5727 5726 5727 5729 5731 5732
5802 5773 5765 5774 5777 5787 5803 5803 5807 5811 5800 5799 5798 5793 5795 5797 5793 5788 5785 5784 5784 5784 5782 5779 5775 5771 5767 5764 5761 5757 5753 5749 5746 5743 5739 5736 5733 5731 5730 5728 5727 5725 5724 5723 5723 5724 5725 5726 5727
5790 5769 5778 5790 5793 5796 5802 5802 5803 5800 5792 5791 5793 5797 5799 5794 5789 5784 5780 5779 5779 5778 5777 5775 5771 5767 5763 5760 5758 5755 5751 5747 5743 5740 5736 5732 5729 5727 5726 5725 5724 5723 5721 5720 5719 5720 5721 5722 5722
5791 5780 5789 5797 5802 5803 5800 5801 5804 5794 5786 5789 5791 5792 5792 5788 5785 5782 5781 5781 5780 5778 5775 5773 5769 5766 5761 5758 5754 5751 5748 5744 5740 5737 5733 5729 5725 5723 5722 5721 5720 5719 5718 5717 5716 5716 5717 5717 5717
5786 5789 5794 5797 5804 5802 5800 5800 5797 5795 5796 5805 5804 5799 5793 5787 5785 5784 5783 5782 5780 5777 5774 5772 5768 5764 5760 5756 5751 5748 5744 5741 5737 5734 5730 5726 5722 5720 5719 5718 5717 5716 5715 5714 5713 5713 5713 5712 5711
5781 5787 5795 5798 5800 5801 5800 5797 5795 5797 5806 5809 5804 5797 5792 5790 5789 5790 5789 5785 5781 5776 5773 5770 5768 5763 5759 5754 5749 5744 5740 5738 5735 5731 5727 5724 5720 5717 5717 5716 5715 5714 5713 5711 5710 5709 5709 5708 5707
5781 5786 5789 5794 5796 5798 5794 5793 5793 5796 5806 5802 5798 5794 5792 5790 5790 5788 5786 5784 5781 5777 5774 5771 5767 5764 5759 5753 5747 5743 5738 5734 5731 5728 5725 5722 5718 5716 5714 5713 5712 5711 5710 5709 5708 5706 5705 5704 5703
5781 5777 5781 5787 5791 5793 5790 5779 5785 5797 5800 5795 5793 5792 5791 5789 5789 5788 5789 5787 5783 5779 5775 5771 5768 5764 5757 5751 5746 5741 5736 5732 5728 5726 5723 5720 5717 5714 5712 5711 5709 5708 5707 5707 5705 5703 5702 5700 5699
5770 5762 5757 5774 5784 5787 5775 5759 5783 5794 5792 5787 5787 5786 5786 5786 5788 5789 5789 5787 5785 5780 5776 5773 5769 5763 5757 5750 5744 5740 5735 5731 5727 5725 5722 5719 5716 5713 5710 5709 5708 5706 5705 5704 5703 5700 5698 5696 5695
5747 5741 5746 5760 5778 5777 5766 5758 5779 5789 5786 5782 5782 5781 5780 5781 5783 5786 5786 5786 5785 5782 5778 5773 5769 5764 5757 5749 5743 5739 5735 5730 5726 5723 5721 5718 5715 5712 5709 5708 5707 5705 5704 5703 5702 5699 5697 5694 5692
5731 5735 5740 5747 5765 5766 5757 5757 5773 5782 5780 5778 5777 5775 5774 5775 5778 5780 5781 5783 5782 5780 5776 5771 5766 5761 5754 5747 5740 5735 5732 5728 5725 5722 5720 5718 5715 5712 5709 5707 5706 5704 5702 5701 5700 5697 5696 5693 5691
5738 5734 5732 5743 5759 5755 5749 5751 5765 5775 5774 5773 5770 5768 5768 5770 5773 5775 5776 5776 5775 5773 5769 5765 5760 5754 5748 5741 5734 5730 5727 5725 5722 5720 5718 5716 5714 5711 5708 5706 5704 5703 5701 5700 5698 5695 5693 5690 5689
5733 5727 5726 5738 5752 5747 5742 5746 5760 5768 5771 5773 5770 5766 5764 5764 5766 5768 5769 5768 5766 5764 5762 5758 5753 5748 5743 5738 5733 5729 5726 5723 5720 5718 5715 5713 5711 5710 5707 5704 5702 5701 5699 5697 5696 5695 5691 5689 5689
5726 5722 5722 5725 5737 5742 5735 5734 5748 5763 5769 5771 5770 5766 5761 5760 5760 5761 5760 5759 5758 5756 5754 5751 5747 5742 5737 5732 5728 5723 5720 5718 5714 5712 5711 5710 5709 5707 5705 5703 5700 5698 5698 5697 5696 5696 5695 5689 5687
5715 5730 5728 5724 5715 5708 5720 5703 5732 5746 5750 5759 5760 5758 5756 5756 5756 5755 5754 5753 5752 5751 5748 5745 5740 5735 5731 5727 5722 5718 5714 5711 5710 5709 5709 5707 5706 5703 5701 5698 5697 5695 5695 5695 5695 5696 5696 5693 5687
5720 5731 5723 5717 5710 5702 5708 5700 5716 5736 5739 5750 5753 5753 5753 5752 5752 5751 5750 5749 5748 5746 5743 5739 5734 5730 5725 5721 5717 5712 5708 5707 5705 5705 5704 5702 5700 5698 5695 5693 5692 5691 5690 5691 5692 5693 5694 5693 5689
5723 5715 5706 5696 5692 5683 5702 5695 5701 5725 5737 5746 5750 5751 5750 5749 5749 5748 5746 5744 5742 5739 5736 5732 5727 5722 5718 5714 5710 5707 5704 5702 5700 5698 5697 5696 5694 5692 5690 5688 5687 5686 5685 5686 5688 5689 5690 5690 5689
5710 5690 5670 5671 5665 5673 5697 5694 5702 5734 5743 5745 5747 5748 5748 5748 5746 5743 5740 5737 5735 5732 5729 5725 5720 5716 5712 5708 5705 5703 5701 5699 5697 5695 5692 5690 5688 5686 5685 5684 5682 5681 5681 5681 5682 5683 5684 5685 5684
5698 5690 5668 5659 5658 5669 5689 5686 5710 5738 5746 5750 5750 5748 5746 5744 5743 5740 5738 5734 5731 5728 5724 5720 5715 5711 5707 5704 5701 5699 5698 5696 5694 5692 5689 5687 5685 5684 5683 5680 5677 5676 5676 5676 5677 5678 5679 5679 5679
5694 5689 5696 5673 5667 5665 5676 5693 5714 5737 5742 5744 5744 5741 5739 5740 5740 5738 5736 5732 5728 5724 5720 5716 5711 5707 5704 5700 5697 5695 5693 5692 5690 5688 5686 5684 5682 5682 5681 5678 5674 5672 5671 5672 5673 5674 5675 5676 5676
5699 5689 5673 5665 5655 5651 5667 5680 5693 5717 5725 5733 5734 5733 5735 5736 5736 5736 5733 5730 5726 5722 5718 5713 5708 5705 5701 5698 5695 5692 5690 5689 5687 5684 5682 5680 5678 5678 5677 5675 5673 5670 5669 5669 5669 5671 5673 5673 5673
5688 5682 5672 5661 5661 5650 5650 5672 5707 5713 5720 5722 5726 5728 5729 5731 5732 5732 5730 5727 5723 5718 5714 5709 5704 5701 5697 5695 5692 5689 5687 5685 5683 5680 5678 5676 5674 5673 5672 5671 5670 5668 5667 5667 5666 5668 5669 5670 5670
5684 5680 5668 5659 5656 5654 5649 5669 5717 5717 5717 5718 5721 5724 5727 5729 5730 5729 5726 5722 5718 5713 5709 5704 5700 5697 5695 5692 5689 5686 5684 5681 5678 5677 5674 5672 5669 5668 5667 5666 5665 5664 5663 5663 5662 5662 5664 5665 5666